| time (UTC) | temp F | wind direction | speed MPH | gust MPH | rain 1hr in | rain 24hr in | rain mn in | humidity % | barometer mb |
| 20260510094503 | 46 | 283 | 7.0 | 16.0 | 0.00 | 0.09 | 0.01 | 82 | 1018.4 |
| 20260510093003 | 45 | 286 | 7.0 | 14.0 | 0.00 | 0.09 | 0.01 | 82 | 1018.6 |
| 20260510091524 | 45 | 277 | 8.0 | 18.0 | 0.00 | 0.09 | 0.01 | 82 | 1018.8 |
| 20260510090003 | 45 | 277 | 6.0 | 16.0 | 0.00 | 0.09 | 0.01 | 87 | 1019.0 |
| 20260510084503 | 43 | 281 | 7.0 | 15.0 | 0.00 | 0.09 | 0.01 | 85 | 1019.2 |
| 20260510083003 | 42 | 278 | 6.0 | 15.0 | 0.00 | 0.09 | 0.01 | 86 | 1019.6 |
| 20260510081503 | 42 | 273 | 4.0 | 13.0 | 0.00 | 0.09 | 0.01 | 88 | 1019.7 |
| 20260510080003 | 41 | 270 | 3.0 | 14.0 | 0.00 | 0.09 | 0.01 | 85 | 1019.9 |
| 20260510074503 | 42 | 251 | 3.0 | 9.0 | 0.00 | 0.09 | 0.01 | 86 | 1020.0 |
| 20260510073003 | 41 | 244 | 10.0 | 16.0 | 0.00 | 0.09 | 0.01 | 87 | 1020.2 |
| 20260510071503 | 40 | 245 | 9.0 | 13.0 | 0.00 | 0.09 | 0.01 | 88 | 1020.3 |
| 20260510070003 | 39 | 237 | 8.0 | 14.0 | 0.00 | 0.09 | 0.01 | 89 | 1020.3 |
| 20260510064503 | 39 | 238 | 6.0 | 12.0 | 0.00 | 0.09 | 0.01 | 89 | 1020.4 |
| 20260510063003 | 39 | 240 | 7.0 | 12.0 | 0.00 | 0.09 | 0.01 | 89 | 1020.5 |
| 20260510061503 | 38 | 239 | 10.0 | 15.0 | 0.00 | 0.09 | 0.01 | 89 | 1020.6 |
| 20260510060003 | 38 | 238 | 9.0 | 14.0 | 0.00 | 0.09 | 0.01 | 90 | 1020.6 |
| 20260510054503 | 37 | 234 | 8.0 | 12.0 | 0.00 | 0.09 | 0.01 | 89 | 1020.8 |
| 20260510053004 | 37 | 234 | 10.0 | 14.0 | 0.00 | 0.09 | 0.01 | 89 | 1020.7 |
| 20260510051503 | 37 | 237 | 8.0 | 14.0 | 0.00 | 0.09 | 0.01 | 90 | 1020.9 |
| 20260510050004 | 37 | 240 | 8.0 | 12.0 | 0.00 | 0.09 | 0.01 | 92 | 1020.9 |
| 20260510044503 | 36 | 245 | 8.0 | 11.0 | 0.00 | 0.09 | 0.01 | 92 | 1021.1 |
| 20260510043003 | 36 | 252 | 8.0 | 11.0 | 0.00 | 0.09 | 0.01 | 93 | 1021.2 |
| 20260510041503 | 36 | 255 | 6.0 | 10.0 | 0.00 | 0.09 | 0.01 | 93 | 1021.4 |
| 20260510040003 | 35 | 251 | 8.0 | 12.0 | 0.00 | 0.09 | 0.01 | 94 | 1021.4 |
| 20260510034503 | 34 | 250 | 7.0 | 11.0 | 0.00 | 0.09 | 0.01 | 94 | 1021.6 |
| 20260510033003 | 34 | 256 | 5.0 | 8.0 | 0.00 | 0.09 | 0.01 | 94 | 1021.6 |
| 20260510031524 | 34 | 256 | 5.0 | 12.0 | 0.00 | 0.09 | 0.01 | 93 | 1021.6 |
| 20260510030003 | 35 | 256 | 8.0 | 12.0 | 0.00 | 0.09 | 0.01 | 94 | 1021.8 |
| 20260510024503 | 35 | 263 | 3.0 | 9.0 | 0.00 | 0.09 | 0.01 | 94 | 1022.0 |
| 20260510023003 | 36 | 262 | 1.0 | 4.0 | 0.00 | 0.09 | 0.01 | 94 | 1022.0 |
| 20260510021503 | 36 | 261 | 3.0 | 9.0 | 0.00 | 0.09 | 0.01 | 94 | 1022.1 |
| 20260510020005 | 36 | 258 | 3.0 | 9.0 | 0.00 | 0.09 | 0.01 | 94 | 1022.3 |
| 20260510014526 | 36 | 249 | 9.0 | 15.0 | 0.00 | 0.09 | 0.01 | 94 | 1022.2 |
| 20260510013005 | 36 | 241 | 11.0 | 15.0 | 0.00 | 0.09 | 0.01 | 94 | 1022.2 |
| 20260510011526 | 36 | 237 | 9.0 | 15.0 | 0.00 | 0.09 | 0.01 | 93 | 1022.4 |
| 20260510010005 | 37 | 225 | 8.0 | 12.0 | 0.00 | 0.09 | 0.01 | 95 | 1022.5 |
| 20260510004504 | 36 | 215 | 9.0 | 13.0 | 0.00 | 0.09 | 0.01 | 95 | 1022.8 |
| 20260510003005 | 36 | 211 | 9.0 | 12.0 | 0.00 | 0.09 | 0.01 | 95 | 1023.0 |
| 20260510001505 | 36 | 218 | 7.0 | 9.0 | 0.01 | 0.09 | 0.01 | 94 | 1023.2 |
| 20260510000004 | 36 | 227 | 2.0 | 5.0 | 0.01 | 0.09 | 0.01 | 95 | 1023.4 |
| 20260509234505 | 36 | 226 | 3.0 | 7.0 | 0.02 | 0.09 | 0.01 | 96 | 1023.5 |
| 20260509233004 | 35 | 220 | 5.0 | 10.0 | 0.08 | 0.09 | 0.01 | 94 | 1023.4 |
| 20260509231505 | 35 | 204 | 8.0 | 10.0 | 0.08 | 0.08 | 0.00 | 94 | 1023.6 |
| 20260509230005 | 36 | 209 | 10.0 | 12.0 | 0.08 | 0.08 | 0.00 | 93 | 1023.5 |
| 20260509224525 | 37 | 246 | 9.0 | 15.0 | 0.07 | 0.07 | 0.07 | 94 | 1024.0 |
| 20260509223005 | 38 | 216 | 6.0 | 12.0 | 0.01 | 0.01 | 0.01 | 93 | 1024.3 |
| 20260509221504 | 38 | 172 | 5.0 | 8.0 | 0.00 | 0.00 | 0.00 | 95 | 1024.0 |
| 20260509220004 | 36 | 161 | 5.0 | 5.0 | 0.00 | 0.00 | 0.00 | 94 | 1023.9 |
| 20260509214504 | 34 | 158 | 3.0 | 3.0 | 0.00 | 0.00 | 0.00 | 93 | 1024.0 |
| 20260509213005 | 34 | 159 | 3.0 | 4.0 | 0.00 | 0.00 | 0.00 | 92 | 1024.1 |
| 20260509211504 | 34 | 97 | 1.0 | 2.0 | 0.00 | 0.00 | 0.00 | 91 | 1024.2 |
| 20260509210004 | 34 | 46 | 0.0 | 1.0 | 0.00 | 0.00 | 0.00 | 90 | 1024.0 |
| 20260509204504 | 35 | 46 | 0.0 | 2.0 | 0.00 | 0.00 | 0.00 | 88 | 1024.1 |
| 20260509203004 | 36 | 0 | 0.0 | 0.0 | 0.00 | 0.00 | 0.00 | 85 | 1024.0 |
| 20260509201504 | 39 | 0 | 0.0 | 0.0 | 0.00 | 0.00 | 0.00 | 79 | 1024.0 |
| 20260509200005 | 42 | 47 | 2.0 | 3.0 | 0.00 | 0.00 | 0.00 | 76 | 1024.0 |
| 20260509194504 | 43 | 48 | 3.0 | 5.0 | 0.00 | 0.00 | 0.00 | 76 | 1023.8 |
| 20260509193004 | 43 | 47 | 2.0 | 4.0 | 0.00 | 0.00 | 0.00 | 75 | 1023.7 |
| 20260509191504 | 43 | 39 | 5.0 | 7.0 | 0.00 | 0.00 | 0.00 | 74 | 1023.7 |
| 20260509190005 | 44 | 29 | 4.0 | 8.0 | 0.00 | 0.00 | 0.00 | 74 | 1023.6 |
| 20260509184504 | 45 | 25 | 4.0 | 8.0 | 0.00 | 0.00 | 0.00 | 71 | 1023.6 |
| 20260509183004 | 47 | 32 | 6.0 | 9.0 | 0.00 | 0.00 | 0.00 | 67 | 1023.3 |
| 20260509181504 | 48 | 34 | 5.0 | 9.0 | 0.00 | 0.00 | 0.00 | 65 | 1023.3 |
| 20260509180004 | 50 | 15 | 5.0 | 9.0 | 0.00 | 0.00 | 0.00 | 65 | 1023.3 |
| 20260509174504 | 50 | 16 | 6.0 | 11.0 | 0.00 | 0.00 | 0.00 | 63 | 1023.2 |
| 20260509173004 | 51 | 18 | 6.0 | 11.0 | 0.00 | 0.00 | 0.00 | 66 | 1023.3 |
| 20260509171504 | 50 | 25 | 7.0 | 12.0 | 0.00 | 0.00 | 0.00 | 64 | 1023.5 |
| 20260509170004 | 51 | 29 | 6.0 | 11.0 | 0.00 | 0.00 | 0.00 | 67 | 1023.4 |
| 20260509164504 | 50 | 19 | 8.0 | 12.0 | 0.00 | 0.00 | 0.00 | 69 | 1023.5 |
| 20260509163004 | 50 | 7 | 6.0 | 12.0 | 0.00 | 0.00 | 0.00 | 61 | 1023.4 |
| 20260509161525 | 51 | 21 | 9.0 | 13.0 | 0.00 | 0.00 | 0.00 | 68 | 1023.3 |
| 20260509160004 | 51 | 10 | 7.0 | 12.0 | 0.00 | 0.00 | 0.00 | 68 | 1023.2 |
| 20260509154504 | 49 | 20 | 6.0 | 11.0 | 0.00 | 0.00 | 0.00 | 61 | 1023.2 |
| 20260509153004 | 51 | 28 | 8.0 | 13.0 | 0.00 | 0.00 | 0.00 | 69 | 1023.2 |
| 20260509151504 | 52 | 30 | 8.0 | 15.0 | 0.00 | 0.00 | 0.00 | 68 | 1023.2 |
| 20260509150004 | 51 | 20 | 6.0 | 12.0 | 0.00 | 0.00 | 0.00 | 69 | 1023.2 |
| 20260509144525 | 51 | 360 | 8.0 | 13.0 | 0.00 | 0.00 | 0.00 | 68 | 1023.4 |
| 20260509143025 | 50 | 351 | 11.0 | 15.0 | 0.00 | 0.00 | 0.00 | 66 | 1023.6 |
| 20260509141525 | 48 | 348 | 12.0 | 20.0 | 0.00 | 0.00 | 0.00 | 68 | 1023.6 |
| 20260509140005 | 50 | 346 | 12.0 | 20.0 | 0.00 | 0.00 | 0.00 | 65 | 1023.5 |
| 20260509134504 | 49 | 334 | 11.0 | 18.0 | 0.00 | 0.00 | 0.00 | 63 | 1023.4 |
| 20260509133004 | 49 | 323 | 9.0 | 15.0 | 0.00 | 0.00 | 0.00 | 62 | 1023.4 |
| 20260509131504 | 49 | 324 | 9.0 | 16.0 | 0.00 | 0.00 | 0.00 | 63 | 1023.5 |
| 20260509130004 | 50 | 351 | 8.0 | 15.0 | 0.00 | 0.00 | 0.00 | 65 | 1023.5 |
| 20260509124504 | 50 | 352 | 10.0 | 15.0 | 0.00 | 0.00 | 0.00 | 66 | 1023.6 |
| 20260509123004 | 50 | 352 | 11.0 | 19.0 | 0.00 | 0.00 | 0.00 | 62 | 1023.6 |
| 20260509121504 | 50 | 341 | 13.0 | 19.0 | 0.00 | 0.00 | 0.00 | 62 | 1023.6 |
| 20260509120004 | 49 | 329 | 10.0 | 16.0 | 0.00 | 0.00 | 0.00 | 62 | 1023.5 |
| 20260509114504 | 48 | 332 | 8.0 | 16.0 | 0.00 | 0.00 | 0.00 | 67 | 1023.6 |
| 20260509113004 | 48 | 332 | 7.0 | 16.0 | 0.00 | 0.00 | 0.00 | 70 | 1023.7 |
| 20260509111504 | 48 | 341 | 11.0 | 16.0 | 0.00 | 0.00 | 0.00 | 69 | 1023.7 |
| 20260509110004 | 48 | 332 | 10.0 | 16.0 | 0.00 | 0.00 | 0.00 | 70 | 1023.9 |
| 20260509104504 | 48 | 336 | 11.0 | 18.0 | 0.00 | 0.00 | 0.00 | 74 | 1023.7 |
| 20260509103004 | 48 | 341 | 14.0 | 22.0 | 0.00 | 0.00 | 0.00 | 77 | 1023.6 |
| 20260509101504 | 47 | 334 | 12.0 | 19.0 | 0.00 | 0.00 | 0.00 | 75 | 1023.5 |
| 20260509100005 | 47 | 322 | 13.0 | 20.0 | 0.00 | 0.00 | 0.00 | 74 | 1023.5 |